Regional Weather Roundup
Issued by NWS Wakefield, VA

Home | Current Version | Previous Version | Graphics & Text | Print | Product List | Glossary On
Versions: 1 2 3 4 5 6 7 8 9 10 11 12 13 14 15 16 17 18 19 20 21 22 23 24 25 26 27 28 29 30 31 32 33 34 35 36 37 38 39 40 41 42 43 44 45 46 47 48 49 50
000
ASUS41 KAKQ 250915
RWRAKQ

REGIONAL WEATHER ROUNDUP
NATIONAL WEATHER SERVICE WAKEFIELD VA
500 AM EDT TUE JUL 25 2017

Note: "fair" indicates few or no clouds below 12,000 feet with no
significant weather and/or obstructions to visibility. * = Denotes
station may not report precipitation (e.g., rain,snow,etc.),
thunder or fog.

VAZ042-051-052>054-056-251000-
NORTHERN VIRGINIA

CITY           SKY/WX    TMP DP  RH WIND       PRES   REMARKS
WASH NATIONAL  MOCLDY    73  60  63 N13       30.01R
DULLES         MOCLDY    69  57  65 NW8       30.02R
FORT BELVOIR   CLOUDY    72  59  64 NW5       30.01R
QUANTICO       CLOUDY    74  64  71 N6        30.01R
FREDERICKSBRG* PTCLDY    74  62  67 MISG      29.99S
STAFFORD*      PTCLDY    71  60  67 N9        30.05R
WARRENTON      CLOUDY    71  56  59 N8        30.02R
CULPEPER*      CLOUDY    70  60  71 N5        30.03R
MANASSAS*      MOCLDY    70  59  68 N12       30.02R
LEESBURG*      PTCLDY    68  59  73 CALM      30.03R
WINCHESTER     CLOUDY    63  55  77 CALM      30.05R
FRONT ROYAL*   CLOUDY    66  59  77 CALM      30.03S
LURAY*         CLOUDY    70  63  78 N5        30.04R
$$

VAZ048-049-060>072-079>083-251000-
CENTRAL AND SOUTH CENTRAL VIRGINIA

CITY           SKY/WX    TMP DP  RH WIND       PRES   REMARKS
RICHMOND       CLEAR     75  68  78 N8        29.99R
CHESTERFIELD*  NOT AVBL
PETERSBURG*    PTCLDY    68  68  99 CALM      29.99R
HANOVER        CLEAR     73  64  73 CALM      30.00R
TAPPAHANNOCK*  CLEAR     76  62  63 N3        29.98S
QUINTON*       FAIR      73  70  89 CALM      29.98R
CHARLOTTSVILLE MOCLDY    73  66  78 NE6       30.01R
GORDONSVILLE*  CLOUDY    68  67  96 CALM      30.01R
ORANGE*        CLOUDY    70  63  78 CALM      30.01R
LOUISA*        PTCLDY    72  64  78 NE3       30.01R
BUMPASS*       FAIR      72  65  77 NE3       30.00R
FARMVILLE*     PTCLDY    71  66  83 CALM      29.99R
CREWE*         FAIR      70  66  87 CALM      29.99R
FORT PICKETT*  PTSUNNY  N/A N/A N/A W8        29.99R
CHASE CITY*    FAIR      70  70 100 CALM      30.01R
CLARKSVILLE*   FAIR      70  70 100 CALM      30.00R
SOUTH HILL*    PTCLDY    72  70  92 CALM      30.05R
LAWRENCEVILLE* FAIR      73  69  87 CALM      29.99R
EMPORIA*       CLEAR     73  70  88 CALM      29.98R
$$

VAZ088>098-251000-
SOUTHEAST VIRGINIA

CITY           SKY/WX    TMP DP  RH WIND       PRES   REMARKS
NORFOLK        PTCLDY    81  75  82 NW3       29.94R
VIRGINIA BEACH PTCLDY    77  73  87 W5        29.94R
NORFOLK NAVAL  PTCLDY    81  72  74 N10       29.96R
WEST POINT*    PTCLDY    75  69  80 CALM      29.98R
SALUDA*        FAIR      77  71  80 N8        29.96R
NEWPORT NEWS   CLEAR     78  71  79 N5        29.95S
LANGLEY AFB    CLEAR     78  72  82 N8        29.94S
FORT EUSTIS    CLEAR     79  71  75 N6        29.94R
WILLIAMSBURG*  CLEAR     77  72  83 CALM      29.97R
HR EXEC AP*    FAIR      72  70  94 CALM      29.94R
FRANKLIN*      CLEAR     73  73 100 CALM      29.97R
US460-WAKEFLD  CLEAR     74  71  91 NW3       29.97R
$$

VAZ020-022-025-037-045-251000-
WEST CENTRAL AND SOUTHWEST VIRGINIA

CITY           SKY/WX    TMP DP  RH WIND       PRES   REMARKS
STAUNTON*      MOCLDY    69  63  80 NE7       30.07R
WAYNESBORO*    MOSUNNY   69  64  84 NW5       30.06R
HOT SPRINGS VA PTCLDY    63  59  88 W10G16    30.17R
LYNCHBURG      PTCLDY   N/A N/A N/A CALM      30.03R
DANVILLE       PTCLDY    69  69 100 CALM      30.02R
SOUTH BOSTON*  FAIR      71  69  95 CALM      30.01R
MARTINSVILLE   CLEAR     66  65  97 CALM      30.06R
ROANOKE        PTCLDY    73  66  78 NW3       30.07R
BLACKSBURG     CLOUDY    68  65  93 CALM      30.13S
DUBLIN*        CLEAR     69  62  78 CALM      30.12R
MARION*        FOG       68  64  88 W6        30.16R VSB<1/4
HILLSVILLE*    PTCLDY    68  62  80 CALM      30.12S
RICHLANDS*     CLOUDY    66  65  96 CALM      30.16R
WISE*          MOCLDY    68  68 100 CALM      30.17R
ABINGDON*      CLEAR     69  68  98 CALM      30.12R
$$

MDZ021>025-VAZ099-100-251000-
SOUTHERN MARYLAND AND THE DELMARVA PENINSULA

CITY           SKY/WX    TMP DP  RH WIND       PRES   REMARKS
PATUXENT RIVER CLEAR     75  67  76 N10       29.97R
BAY BRIDGE APT CLOUDY    75  59  57 NW7       29.97S
LEONARDTOWN    CLEAR     73  64  73 NW3       30.00R
DOVER          CLOUDY    70  70 100 CALM      29.95R
GEORGETOWN     PTCLDY    71  69  93 W3        29.97R
EASTON         CLOUDY    71  67  88 CALM      30.01R
CAMBRIDGE      CLEAR     75  68  78 NW12      29.96R
SALISBURY      NOT AVBL
OCEAN CITY     MOCLDY    72  71  97 N3        29.94R
WALLOPS ISLAND CLEAR     73  71  93 NW7       29.95R
ACCOMACK*      CLEAR     76  70  81 N7        29.95R
$$

NCZ012>017-030>032-251000-
NORTH CENTRAL AND EASTERN NORTH CAROLINA

CITY           SKY/WX    TMP DP  RH WIND       PRES   REMARKS
ROANOKE RAPIDS FAIR      73  73 100 SW6       29.98R
RALEIGH        MOCLDY    77  75  93 CALM      30.01R
ELIZABETH CITY PTCLDY    78  77  96 SW9       29.95R
AHOSKIE*         N/A     73  73  99 CALM      29.97R FOG
EDENTON*       PTCLDY    81  76  86 CALM      29.97R
CURRITUCK*     PTCLDY    78  78 100 SW7       29.95S
KILL DEVIL HLS PTCLDY    79  76  91 SW8       29.95R
MANTEO         PTCLDY    79  77  94 W6        29.96S
CAPE HATTERAS  CLOUDY    77  75  93 W8        29.98R
TARBORO*       NOT AVBL
GOLDSBORO      CLEAR     75  75 100 SW7       29.98R
WASHINGTON     CLEAR     76  74  92 SW7       29.98S
GREENVILLE     CLEAR     77  75  94 SW6       30.00R
NEW BERN       CLOUDY    75  72  90 SW8       30.01R
WILMINGTON     PTCLDY    76  75  97 W5        30.01S
$$

VAZ048-251000-
ELSEWHERE

CITY           SKY/WX    TMP DP  RH WIND       PRES   REMARKS
HARRISBURG PA  PTCLDY    67  59  75 NW8       29.98R
BALTIMORE      CLOUDY    68  61  78 NW6       29.99R
ANNAPOLIS      CLOUDY    73  68  84 W6        29.97R
ANDREWS AFB    PTCLDY    71  61  72 N12       29.99R
PHILADELPHIA   CLOUDY    67  64  90 NE7       29.97R
HENDERSON NC   MOCLDY    71  67  87 CALM      30.01R
GREENSBORO     PTCLDY    75  69  81 NE3       30.02R
ROCKY MOUNT    MOCLDY    75  75 100 SW3       29.99R FOG
$$

VAZ100-251000-
MARINE

STATION/POSITION TIME  TEMP    WIND        PRES    WAVE   SWELL
                       AIR SEA DIR/SP/G            HT/PER HT/PER
                 (UTC) (F)     (DEG/KT/KT) (MB)    (FT/S) (FT/S)
BRANDYWINE LGT   0848           30/ 12/ 12   N/A
CAPE MAY NJ      0848   69 74   30/  3/  6 1013.6R
LEWES DE         0848   73 76   10/  6/  8 1013.8R
15NM E FENWICK I 0850   76 78  330/ 10/ 12 1013.7R   4/ 7   3/ 7
OCEAN-CITY-INLET 0848   72 71   10/  5/  8 1014.3R
WACHAPREAGUE VA  0848   77 84  320/  4/  6 1013.9R
THOMAS POINT MD  0900   74 81  320/  8/  9   N/A
GOOSES REEF MD   0900   78 83   20/ 16/ 19 1015.4    2/ 3
COVE POINT MD    0848   78      10/ 16/ 22 1015.4R
SOLOMONS ISLAND  0848   76 84  330/  8/ 10   N/A
BISHOPS HEAD MD  0848   74 83  340/  6/  9 1014.7R
PINEY POINT MD   0848          360/ 11/ 13   N/A
POTOMAC MD       0900   79 83  350/ 10/ 12 1013.8    1/ 3
CAMBRIDGE MD     0842   76 86              1015.3R
LEWISETTA VA     0848   79 84   10/ 11/ 16 1014.6R
RAPPAHANNOCK LGT 0848          360/ 22/ 24 1014.7R
STINGRAY PT      0900   81 84   30/ 19/ 23 1014.1    2/ 3
YORK RVR RNG VA  0848   81      30/ 15/ 18 1014.5R
YORKTOWN VA      0848   80 82  360/  7/ 10 1014.1R
JAMESTOWN VA     0900      86  360/  6/ 10   N/A
DOMINION TERM VA 0848   81      30/  1/  6 1013.9R
KIPTOPEKE VA     0848      74  360/ 11/ 17   N/A
CHES BAY BRIDGE  0848   80 77  310/ 11/ 12 1013.8R
CAPE HENRY VA    0848   80     270/ 10/ 13   N/A
WILLOUBY STN VA  0848   80     340/ 12/ 14 1013.9R
S CRANEY ISL VA  0848   80     300/  4/ 10 1013.8R
CAPE HENRY BUOY  0830      65                N/A     2/10
1ST LANDING BUOY 0900   80 75              1014.0    1
64NM E OF VA BCH 0850   79 78  230/ 10/ 12 1014.0S   4/ 6   3/ 6
DUCK PIER NC     0848   81 65  240/ 12/ 15 1013.6S
44100 DUCK FRF   0835      78                N/A     2/11
44056 DUCK FRF   0900      71                N/A     2/11
OREGON INLET NC  0848          240/ 11/ 13   N/A
HATTERAS NC      0848   77 78  240/  7/ 10 1015.1R
DIAMOND SHLS NC  0850   82 84  250/ 19/ 23 1015.0R   6/ 6   2/11
CAPE LOOKOUT NC  0800   80     240/ 10/ 13 1015.3R
$$



USA.gov is the U.S. government's official web portal to all federal, state and local government web resources and services.